• In Deutschland
  • Länderverzeichnis
  • Für 7 Tage
  • Wassertemperatur
  • Satellitenkarten
  • Wetterkarte
  • Widgets
  • user-avatar
    Anmelden

    Stündliche Wetter Muiinga

    Heute, 24 Oktober, Mittwoch

    Zeit Temperatur Niederschläge Wind Luftdruck Luftfeuchtigkeit
    00:00 +16°C° 0.7 mm 0 m/S 629 mmHg 85%
    01:00 +16°C° 0.7 mm 0 m/S 629 mmHg 86%
    02:00 +16°C° 0.7 mm 0 m/S 628 mmHg 87%
    03:00 +15°C° 0.1 mm 0 m/S 628 mmHg 88%
    04:00 +15°C° 0.1 mm 0 m/S 628 mmHg 89%
    05:00 +15°C° 0.1 mm 0 m/S 628 mmHg 90%
    06:00 +18°C° 0 mm 1 m/S 629 mmHg 82%
    07:00 +20°C° 0 mm 1 m/S 630 mmHg 75%
    08:00 +22°C° 0 mm 1 m/S 631 mmHg 68%
    09:00 +23°C° 0 mm 2 m/S 631 mmHg 61%
    10:00 +25°C° 0 mm 2 m/S 632 mmHg 54%
    11:00 +26°C° 0 mm 3 m/S 632 mmHg 48%
    12:00 +26°C° 0 mm 2 m/S 631 mmHg 46%
    13:00 +27°C° 0 mm 2 m/S 630 mmHg 44%
    14:00 +27°C° 0 mm 2 m/S 629 mmHg 43%
    15:00 +27°C° 0 mm 1 m/S 629 mmHg 46%
    16:00 +26°C° 0 mm 1 m/S 629 mmHg 49%
    17:00 +24°C° 0 mm 0 m/S 629 mmHg 52%
    18:00 +22°C° 0 mm 0 m/S 629 mmHg 55%
    19:00 +20°C° 0 mm 0 m/S 628 mmHg 59%
    20:00 +21°C° 0 mm 1 m/S 628 mmHg 62%
    21:00 +20°C° 0 mm 1 m/S 628 mmHg 64%
    22:00 +17°C° 0 mm 0 m/S 628 mmHg 67%
    23:00 +17°C° 0 mm 0 m/S 628 mmHg 69%

    Morgen, 25 Oktober, Donnerstag

    Zeit Temperatur Niederschläge Wind Luftdruck Luftfeuchtigkeit
    00:00 +16°C° 0 mm 0 m/S 628 mmHg 70%
    01:00 +16°C° 0 mm 0 m/S 627 mmHg 72%
    02:00 +16°C° 0 mm 0 m/S 627 mmHg 73%
    03:00 +15°C° 0 mm 0 m/S 627 mmHg 74%
    04:00 +15°C° 0 mm 0 m/S 627 mmHg 75%
    05:00 +15°C° 0 mm 0 m/S 627 mmHg 76%
    06:00 +19°C° 0 mm 1 m/S 628 mmHg 70%
    07:00 +21°C° 0 mm 1 m/S 630 mmHg 64%
    08:00 +23°C° 0 mm 2 m/S 631 mmHg 58%
    09:00 +24°C° 0.1 mm 2 m/S 631 mmHg 55%
    10:00 +25°C° 0.1 mm 2 m/S 631 mmHg 52%
    11:00 +26°C° 0.1 mm 2 m/S 631 mmHg 50%
    12:00 +26°C° 0.2 mm 2 m/S 630 mmHg 51%
    13:00 +26°C° 0.2 mm 2 m/S 629 mmHg 52%
    14:00 +25°C° 0.2 mm 2 m/S 629 mmHg 53%
    15:00 +24°C° 0.3 mm 2 m/S 628 mmHg 58%
    16:00 +23°C° 0.3 mm 1 m/S 628 mmHg 64%
    17:00 +22°C° 0.3 mm 1 m/S 628 mmHg 70%
    18:00 +21°C° 0.3 mm 1 m/S 628 mmHg 73%
    19:00 +20°C° 0.3 mm 1 m/S 629 mmHg 76%
    20:00 +20°C° 0.3 mm 1 m/S 629 mmHg 79%
    21:00 +19°C° 0.4 mm 1 m/S 629 mmHg 81%
    22:00 +19°C° 0.4 mm 1 m/S 629 mmHg 83%
    23:00 +18°C° 0.4 mm 1 m/S 629 mmHg 85%

    übermorgen, 26 Oktober, Freitag

    Zeit Temperatur Niederschläge Wind Luftdruck Luftfeuchtigkeit
    00:00 +18°C° 0 mm 1 m/S 629 mmHg 87%
    01:00 +16°C° 0 mm 1 m/S 628 mmHg 89%
    02:00 +16°C° 0 mm 1 m/S 628 mmHg 90%
    03:00 +16°C° 0 mm 1 m/S 628 mmHg 90%
    04:00 +16°C° 0 mm 1 m/S 628 mmHg 91%
    05:00 +15°C° 0 mm 1 m/S 628 mmHg 91%
    06:00 +18°C° 0 mm 1 m/S 629 mmHg 85%
    07:00 +18°C° 0 mm 2 m/S 630 mmHg 78%
    08:00 +20°C° 0 mm 2 m/S 631 mmHg 72%
    09:00 +23°C° 0.1 mm 2 m/S 631 mmHg 65%
    10:00 +24°C° 0.1 mm 2 m/S 631 mmHg 59%
    11:00 +26°C° 0.1 mm 2 m/S 632 mmHg 52%
    12:00 +26°C° 0.4 mm 2 m/S 631 mmHg 52%
    13:00 +26°C° 0.4 mm 2 m/S 630 mmHg 52%
    14:00 +26°C° 0.4 mm 2 m/S 629 mmHg 52%
    15:00 +26°C° 0.3 mm 1 m/S 629 mmHg 56%
    16:00 +25°C° 0.3 mm 1 m/S 629 mmHg 60%
    17:00 +22°C° 0.3 mm 0 m/S 628 mmHg 64%
    18:00 +21°C° 0 mm 0 m/S 629 mmHg 68%
    19:00 +22°C° 0 mm 1 m/S 629 mmHg 71%
    20:00 +20°C° 0 mm 1 m/S 629 mmHg 75%
    21:00 +20°C° 0 mm 1 m/S 629 mmHg 77%
    22:00 +19°C° 0 mm 1 m/S 629 mmHg 79%
    23:00 +19°C° 0 mm 1 m/S 629 mmHg 81%

    27 Oktober, Samstag

    Zeit Temperatur Niederschläge Wind Luftdruck Luftfeuchtigkeit
    00:00 +19°C° 0 mm 1 m/S 629 mmHg 82%
    01:00 +18°C° 0 mm 1 m/S 628 mmHg 84%
    02:00 +18°C° 0 mm 1 m/S 628 mmHg 85%
    03:00 +18°C° 0.1 mm 1 m/S 628 mmHg 86%
    04:00 +16°C° 0.1 mm 0 m/S 628 mmHg 86%
    05:00 +16°C° 0.1 mm 0 m/S 629 mmHg 87%
    06:00 +19°C° 0 mm 1 m/S 630 mmHg 80%
    07:00 +21°C° 0 mm 1 m/S 631 mmHg 74%
    08:00 +21°C° 0 mm 2 m/S 631 mmHg 67%
    09:00 +24°C° 0.1 mm 2 m/S 632 mmHg 61%
    10:00 +25°C° 0.1 mm 2 m/S 632 mmHg 55%
    11:00 +27°C° 0.1 mm 2 m/S 632 mmHg 49%
    12:00 +27°C° 0.8 mm 2 m/S 631 mmHg 51%
    13:00 +27°C° 0.8 mm 2 m/S 630 mmHg 53%
    14:00 +26°C° 0.8 mm 2 m/S 629 mmHg 54%
    15:00 +26°C° 1.1 mm 1 m/S 628 mmHg 59%
    16:00 +25°C° 1.1 mm 1 m/S 628 mmHg 63%
    17:00 +22°C° 1.1 mm 0 m/S 628 mmHg 68%
    18:00 +23°C° 0.3 mm 1 m/S 628 mmHg 71%
    19:00 +21°C° 0.3 mm 1 m/S 628 mmHg 75%
    20:00 +20°C° 0.3 mm 1 m/S 628 mmHg 78%
    21:00 +20°C° 0.6 mm 1 m/S 628 mmHg 81%
    22:00 +19°C° 0.6 mm 1 m/S 628 mmHg 84%
    23:00 +18°C° 0.6 mm 1 m/S 628 mmHg 87%

    28 Oktober, Sonntag

    Zeit Temperatur Niederschläge Wind Luftdruck Luftfeuchtigkeit
    00:00 +18°C° 0.4 mm 1 m/S 627 mmHg 88%
    01:00 +18°C° 0.4 mm 1 m/S 627 mmHg 90%
    02:00 +18°C° 0.4 mm 1 m/S 626 mmHg 91%
    03:00 +16°C° 0 mm 0 m/S 627 mmHg 91%
    04:00 +16°C° 0 mm 0 m/S 627 mmHg 91%
    05:00 +16°C° 0 mm 0 m/S 628 mmHg 91%
    06:00 +17°C° 0.1 mm 0 m/S 629 mmHg 85%
    07:00 +19°C° 0.1 mm 0 m/S 630 mmHg 78%
    08:00 +21°C° 0.1 mm 0 m/S 631 mmHg 72%
    09:00 +24°C° 0.4 mm 1 m/S 631 mmHg 66%
    10:00 +26°C° 0.4 mm 1 m/S 631 mmHg 60%
    11:00 +27°C° 0.4 mm 2 m/S 631 mmHg 54%
    12:00 +27°C° 0.3 mm 2 m/S 630 mmHg 53%
    13:00 +27°C° 0.3 mm 2 m/S 629 mmHg 52%
    14:00 +28°C° 0.3 mm 2 m/S 629 mmHg 51%
    15:00 +27°C° 0.2 mm 1 m/S 628 mmHg 55%
    16:00 +26°C° 0.2 mm 1 m/S 628 mmHg 59%
    17:00 +25°C° 0.2 mm 1 m/S 628 mmHg 63%
    18:00 +23°C° 0.1 mm 1 m/S 628 mmHg 68%
    19:00 +22°C° 0.1 mm 1 m/S 628 mmHg 73%
    20:00 +20°C° 0.1 mm 1 m/S 628 mmHg 77%
    21:00 +20°C° 0.5 mm 1 m/S 628 mmHg 80%
    22:00 +19°C° 0.5 mm 1 m/S 628 mmHg 83%
    23:00 +19°C° 0.5 mm 1 m/S 627 mmHg 86%

    29 Oktober, Montag

    Zeit Temperatur Niederschläge Wind Luftdruck Luftfeuchtigkeit
    00:00 +18°C° 0 mm 1 m/S 627 mmHg 87%
    01:00 +18°C° 0 mm 1 m/S 626 mmHg 88%
    02:00 +16°C° 0 mm 1 m/S 626 mmHg 89%
    03:00 +16°C° 0 mm 1 m/S 626 mmHg 88%
    04:00 +15°C° 0 mm 0 m/S 626 mmHg 88%
    05:00 +15°C° 0 mm 0 m/S 627 mmHg 87%
    06:00 +17°C° 0.1 mm 0 m/S 628 mmHg 81%
    07:00 +19°C° 0.1 mm 0 m/S 629 mmHg 75%
    08:00 +21°C° 0.1 mm 0 m/S 630 mmHg 69%
    09:00 +24°C° 0.5 mm 1 m/S 630 mmHg 65%
    10:00 +25°C° 0.5 mm 2 m/S 630 mmHg 61%
    11:00 +26°C° 0.5 mm 2 m/S 630 mmHg 56%
    12:00 +26°C° 0.7 mm 2 m/S 629 mmHg 56%
    13:00 +27°C° 0.7 mm 2 m/S 629 mmHg 57%
    14:00 +27°C° 0.7 mm 2 m/S 628 mmHg 57%
    15:00 +26°C° 1.3 mm 2 m/S 628 mmHg 62%
    16:00 +25°C° 1.3 mm 1 m/S 628 mmHg 66%
    17:00 +24°C° 1.3 mm 1 m/S 627 mmHg 71%
    18:00 +21°C° 1.3 mm 0 m/S 628 mmHg 75%
    19:00 +20°C° 1.3 mm 0 m/S 628 mmHg 79%
    20:00 +18°C° 1.3 mm 0 m/S 628 mmHg 83%
    21:00 +18°C° 0.3 mm 0 m/S 628 mmHg 84%
    22:00 +19°C° 0.3 mm 1 m/S 628 mmHg 85%
    23:00 +19°C° 0.3 mm 1 m/S 628 mmHg 85%

    30 Oktober, Dienstag

    Zeit Temperatur Niederschläge Wind Luftdruck Luftfeuchtigkeit
    00:00 +19°C° 0 mm 1 m/S 627 mmHg 87%
    01:00 +18°C° 0 mm 1 m/S 626 mmHg 88%
    02:00 +18°C° 0 mm 1 m/S 626 mmHg 89%
    03:00 +16°C° 0 mm 1 m/S 626 mmHg 89%
    04:00 +16°C° 0 mm 1 m/S 626 mmHg 90%
    05:00 +15°C° 0 mm 0 m/S 626 mmHg 90%
    06:00 +17°C° 0 mm 0 m/S 627 mmHg 85%
    07:00 +18°C° 0 mm 0 m/S 628 mmHg 79%
    08:00 +20°C° 0 mm 0 m/S 629 mmHg 74%
    09:00 +23°C° 0 mm 0 m/S 630 mmHg 65%
    10:00 +26°C° 0 mm 0 m/S 630 mmHg 56%
    11:00 +28°C° 0 mm 0 m/S 631 mmHg 46%
    12:00 +29°C° 0.8 mm 1 m/S 630 mmHg 51%
    13:00 +27°C° 0.8 mm 2 m/S 628 mmHg 57%
    14:00 +26°C° 0.8 mm 2 m/S 627 mmHg 62%
    15:00 +25°C° 1.5 mm 2 m/S 627 mmHg 68%
    16:00 +24°C° 1.5 mm 1 m/S 627 mmHg 74%
    17:00 +23°C° 1.5 mm 1 m/S 627 mmHg 80%
    18:00 +22°C° 0.7 mm 1 m/S 627 mmHg 81%
    19:00 +19°C° 0.7 mm 0 m/S 627 mmHg 83%
    20:00 +18°C° 0.7 mm 0 m/S 628 mmHg 84%
    21:00 +18°C° 0.3 mm 0 m/S 628 mmHg 85%
    22:00 +20°C° 0.3 mm 1 m/S 628 mmHg 85%
    23:00 +19°C° 0.3 mm 1 m/S 628 mmHg 86%
    Mehr zeigen